Time,TemperatureF,DewpointF,PressureIn,WindDirection,WindDirectionDegrees,WindSpeedMPH,WindSpeedGustMPH,Humidity,HourlyPrecipIn,Conditions,Clouds,dailyrainin,SoftwareType,DateUTC
2013-04-12 00:23:00,32.0,14.0,30.15,NW,326,4.0,8.0,47,0.00,,,-99.99,,2013-04-12 04:23:00,
2013-04-12 00:33:00,32.0,14.0,30.17,NNW,332,5.0,8.0,47,0.00,,,-99.99,,2013-04-12 04:33:00,
2013-04-12 00:43:00,32.0,14.0,30.17,NNW,332,5.0,8.0,47,0.00,,,-99.99,,2013-04-12 04:43:00,
2013-04-12 00:52:00,32.0,15.0,30.17,NNW,330,3.0,6.0,48,0.00,,,-99.99,,2013-04-12 04:52:00,
2013-04-12 01:03:00,31.0,14.0,30.17,NW,322,2.0,6.0,49,0.00,,,-99.99,,2013-04-12 05:03:00,
2013-04-12 01:12:00,31.0,14.0,30.17,NW,322,2.0,6.0,49,0.00,,,-99.99,,2013-04-12 05:12:00,
2013-04-12 01:23:00,31.0,15.0,30.19,NW,322,0.0,4.0,51,0.00,,,-99.99,,2013-04-12 05:23:00,
2013-04-12 01:32:00,30.0,15.0,30.19,NW,322,2.0,4.0,53,0.00,,,-99.99,,2013-04-12 05:32:00,
2013-04-12 01:42:00,30.0,15.0,30.19,NW,322,2.0,4.0,53,0.00,,,-99.99,,2013-04-12 05:42:00,
2013-04-12 01:52:00,30.0,15.0,30.19,NW,323,3.0,4.0,54,0.00,,,-99.99,,2013-04-12 05:52:00,
2013-04-12 02:02:00,30.0,15.0,30.19,NW,322,2.0,6.0,54,0.00,,,-99.99,,2013-04-12 06:02:00,
2013-04-12 02:12:00,30.0,15.0,30.19,NW,322,2.0,6.0,54,0.00,,,-99.99,,2013-04-12 06:12:00,
2013-04-12 02:22:00,29.0,15.0,30.19,NW,322,0.0,2.0,56,0.00,,,-99.99,,2013-04-12 06:22:00,
2013-04-12 02:32:00,29.0,16.0,30.19,NW,322,2.0,3.0,57,0.00,,,-99.99,,2013-04-12 06:32:00,
2013-04-12 02:42:00,29.0,16.0,30.19,NW,322,2.0,3.0,57,0.00,,,-99.99,,2013-04-12 06:42:00,
2013-04-12 02:52:00,28.0,16.0,30.19,NW,322,1.0,2.0,60,0.00,,,-99.99,,2013-04-12 06:52:00,
2013-04-12 03:02:00,28.0,16.0,30.19,NW,322,0.0,2.0,61,0.00,,,-99.99,,2013-04-12 07:02:00,
2013-04-12 03:12:00,28.0,16.0,30.19,NW,322,0.0,2.0,61,0.00,,,-99.99,,2013-04-12 07:12:00,
2013-04-12 03:22:00,28.0,17.0,30.19,NW,322,0.0,2.0,63,0.00,,,-99.99,,2013-04-12 07:22:00,
2013-04-12 03:32:00,27.0,17.0,30.20,NW,322,0.0,2.0,66,0.00,,,-99.99,,2013-04-12 07:32:00,
2013-04-12 03:42:00,27.0,17.0,30.20,NW,322,0.0,2.0,66,0.00,,,-99.99,,2013-04-12 07:42:00,
2013-04-12 03:52:00,26.0,17.0,30.20,NW,322,0.0,2.0,68,0.00,,,-99.99,,2013-04-12 07:52:00,
2013-04-12 04:03:00,26.0,17.0,30.20,NW,322,0.0,2.0,68,0.00,,,-99.99,,2013-04-12 08:03:00,
2013-04-12 04:12:00,26.0,17.0,30.20,NW,322,0.0,2.0,68,0.00,,,-99.99,,2013-04-12 08:12:00,
2013-04-12 04:22:00,26.0,17.0,30.20,NW,322,3.0,3.0,67,0.00,,,-99.99,,2013-04-12 08:22:00,
2013-04-12 04:32:00,27.0,17.0,30.21,NW,322,0.0,3.0,66,0.00,,,-99.99,,2013-04-12 08:32:00,
2013-04-12 04:42:00,27.0,17.0,30.21,NW,322,0.0,3.0,66,0.00,,,-99.99,,2013-04-12 08:42:00,
2013-04-12 04:52:00,27.0,17.0,30.20,NW,322,2.0,3.0,65,0.00,,,-99.99,,2013-04-12 08:52:00,
2013-04-12 05:02:00,27.0,17.0,30.21,NW,322,3.0,5.0,66,0.00,,,-99.99,,2013-04-12 09:02:00,
2013-04-12 05:12:00,27.0,17.0,30.21,NW,322,3.0,5.0,66,0.00,,,-99.99,,2013-04-12 09:12:00,
2013-04-12 05:22:00,27.0,17.0,30.21,NW,322,2.0,5.0,66,0.00,,,-99.99,,2013-04-12 09:22:00,
2013-04-12 05:33:00,27.0,17.0,30.21,NW,322,2.0,4.0,66,0.00,,,-99.99,,2013-04-12 09:33:00,
2013-04-12 05:43:00,27.0,17.0,30.21,NW,322,2.0,4.0,66,0.00,,,-99.99,,2013-04-12 09:43:00,
2013-04-12 05:53:00,27.0,17.0,30.22,NW,322,0.0,2.0,65,0.00,,,-99.99,,2013-04-12 09:53:00,
2013-04-12 06:03:00,27.0,17.0,30.22,NW,322,0.0,2.0,65,0.00,,,-99.99,,2013-04-12 10:03:00,
2013-04-12 06:13:00,27.0,18.0,30.22,NW,322,0.0,1.0,67,0.00,,,-99.99,,2013-04-12 10:13:00,
2013-04-12 06:23:00,27.0,18.0,30.22,NW,322,0.0,1.0,67,0.00,,,-99.99,,2013-04-12 10:23:00,
2013-04-12 06:34:00,27.0,18.0,30.24,NW,322,0.0,3.0,68,0.00,,,-99.99,,2013-04-12 10:34:00,
2013-04-12 06:42:00,27.0,18.0,30.24,NW,322,0.0,3.0,68,0.00,,,-99.99,,2013-04-12 10:42:00,
2013-04-12 06:52:00,28.0,18.0,30.25,NE,34,2.0,4.0,67,0.00,,,-99.99,,2013-04-12 10:52:00,
2013-04-12 07:03:00,29.0,19.0,30.25,NNW,327,5.0,5.0,65,0.00,,,-99.99,,2013-04-12 11:03:00,
2013-04-12 07:13:00,29.0,19.0,30.25,NNW,327,5.0,5.0,65,0.00,,,-99.99,,2013-04-12 11:13:00,
2013-04-12 07:22:00,29.0,18.0,30.24,NNW,328,1.0,5.0,64,0.00,,,-99.99,,2013-04-12 11:22:00,
2013-04-12 07:32:00,30.0,19.0,30.24,NNW,328,2.0,4.0,63,0.00,,,-99.99,,2013-04-12 11:32:00,
2013-04-12 07:43:00,30.0,19.0,30.24,NNW,328,2.0,4.0,63,0.00,,,-99.99,,2013-04-12 11:43:00,
2013-04-12 07:52:00,31.0,19.0,30.24,NNW,328,4.0,5.0,61,0.00,,,-99.99,,2013-04-12 11:52:00,
2013-04-12 08:02:00,33.0,19.0,30.23,NE,37,4.0,5.0,57,0.00,,,-99.99,,2013-04-12 12:02:00,
2013-04-12 08:13:00,33.0,19.0,30.23,NE,37,4.0,5.0,57,0.00,,,-99.99,,2013-04-12 12:13:00,
2013-04-12 08:22:00,35.0,19.0,30.23,NNW,329,2.0,7.0,51,0.00,,,-99.99,,2013-04-12 12:22:00,
2013-04-12 08:33:00,36.0,20.0,30.23,NNE,25,0.0,11.0,52,0.00,,,-99.99,,2013-04-12 12:33:00,
2013-04-12 08:42:00,36.0,20.0,30.23,NNE,25,0.0,11.0,52,0.00,,,-99.99,,2013-04-12 12:42:00,
2013-04-12 08:53:00,36.0,19.0,30.23,WNW,297,0.0,9.0,50,0.00,,,-99.99,,2013-04-12 12:53:00,
2013-04-12 09:03:00,37.0,20.0,30.22,SE,136,1.0,8.0,49,0.00,,,-99.99,,2013-04-12 13:03:00,
2013-04-12 09:12:00,37.0,20.0,30.22,SE,136,1.0,8.0,49,0.00,,,-99.99,,2013-04-12 13:12:00,
2013-04-12 09:22:00,38.0,21.0,30.22,East,86,0.0,7.0,49,0.00,,,-99.99,,2013-04-12 13:22:00,
2013-04-12 09:32:00,40.0,21.0,30.21,NNE,27,6.0,8.0,46,0.00,,,-99.99,,2013-04-12 13:32:00,
2013-04-12 09:42:00,40.0,21.0,30.21,NNE,27,6.0,8.0,46,0.00,,,-99.99,,2013-04-12 13:42:00,
2013-04-12 09:52:00,40.0,20.0,30.20,ESE,122,3.0,7.0,45,0.00,,,-99.99,,2013-04-12 13:52:00,
2013-04-12 10:03:00,40.0,21.0,30.20,ENE,64,1.0,7.0,47,0.00,,,-99.99,,2013-04-12 14:03:00,
2013-04-12 10:23:00,40.0,20.0,30.19,NNE,18,5.0,11.0,45,0.00,,,-99.99,,2013-04-12 14:23:00,
2013-04-12 10:33:00,41.0,21.0,30.18,East,97,5.0,11.0,44,0.00,,,-99.99,,2013-04-12 14:33:00,
2013-04-12 10:42:00,41.0,21.0,30.18,East,97,5.0,11.0,44,0.00,,,-99.99,,2013-04-12 14:42:00,
2013-04-12 10:54:00,41.0,21.0,30.18,ENE,59,1.0,10.0,44,0.00,,,-99.99,,2013-04-12 14:54:00,
2013-04-12 11:03:00,41.0,21.0,30.17,East,91,0.0,8.0,45,0.00,,,-99.99,,2013-04-12 15:03:00,
2013-04-12 11:12:00,41.0,21.0,30.17,East,91,0.0,8.0,45,0.00,,,-99.99,,2013-04-12 15:12:00,
2013-04-12 11:22:00,41.0,21.0,30.17,ENE,70,0.0,7.0,44,0.00,,,-99.99,,2013-04-12 15:22:00,
2013-04-12 11:33:00,41.0,21.0,30.18,East,86,0.0,3.0,45,0.00,,,-99.99,,2013-04-12 15:33:00,
2013-04-12 11:43:00,41.0,21.0,30.18,East,86,0.0,3.0,45,0.00,,,-99.99,,2013-04-12 15:43:00,
2013-04-12 11:53:00,40.0,23.0,30.19,SW,235,0.0,8.0,50,0.00,,,-99.99,,2013-04-12 15:53:00,
2013-04-12 12:04:00,39.0,24.0,30.18,SSE,149,1.0,8.0,54,0.00,,,-99.99,,2013-04-12 16:04:00,
2013-04-12 12:13:00,39.0,24.0,30.18,SSE,149,1.0,8.0,54,0.00,,,-99.99,,2013-04-12 16:13:00,
2013-04-12 12:23:00,39.0,24.0,30.18,SW,225,0.0,9.0,55,0.00,,,-99.99,,2013-04-12 16:23:00,
2013-04-12 12:33:00,39.0,25.0,30.16,South,176,0.0,6.0,57,0.00,,,-99.99,,2013-04-12 16:33:00,
2013-04-12 12:42:00,39.0,25.0,30.16,South,176,0.0,6.0,57,0.00,,,-99.99,,2013-04-12 16:42:00,
2013-04-12 12:53:00,39.0,27.0,30.16,SSW,208,2.0,7.0,62,0.00,,,-99.99,,2013-04-12 16:53:00,
2013-04-12 13:04:00,39.0,27.0,30.16,WSW,239,0.0,8.0,63,0.00,,,-99.99,,2013-04-12 17:04:00,
2013-04-12 13:12:00,39.0,27.0,30.16,WSW,239,0.0,8.0,63,0.00,,,-99.99,,2013-04-12 17:12:00,
2013-04-12 13:23:00,38.0,27.0,30.15,SSE,160,0.0,7.0,65,0.00,,,-99.99,,2013-04-12 17:23:00,
2013-04-12 13:33:00,38.0,27.0,30.15,NE,55,0.0,5.0,65,0.00,,,-99.99,,2013-04-12 17:33:00,
2013-04-12 13:45:00,38.0,27.0,30.15,NE,55,0.0,5.0,65,0.00,,,-99.99,,2013-04-12 17:45:00,
2013-04-12 14:06:00,38.0,28.0,30.14,South,176,2.0,5.0,66,0.00,,,-99.99,,2013-04-12 18:06:00,
2013-04-12 15:26:00,39.0,27.0,30.12,East,81,1.0,9.0,61,0.00,,,-99.99,,2013-04-12 19:26:00,
2013-04-12 15:27:00,39.0,26.0,30.13,ESE,122,0.0,9.0,60,0.00,,,-99.99,,2013-04-12 19:27:00,
2013-04-12 15:33:00,39.0,26.0,30.11,SW,221,0.0,6.0,59,0.00,,,-99.99,,2013-04-12 19:33:00,
2013-04-12 15:43:00,39.0,26.0,30.11,SW,221,0.0,6.0,59,0.00,,,-99.99,,2013-04-12 19:43:00,
2013-04-12 15:52:00,39.0,25.0,30.11,East,81,0.0,4.0,58,0.00,,,-99.99,,2013-04-12 19:52:00,
2013-04-12 16:02:00,39.0,26.0,30.10,SSE,164,1.0,5.0,59,0.00,,,-99.99,,2013-04-12 20:02:00,
2013-04-12 16:12:00,39.0,26.0,30.10,SSE,164,1.0,5.0,59,0.00,,,-99.99,,2013-04-12 20:12:00,
2013-04-12 16:22:00,38.0,27.0,30.09,SSE,155,0.0,7.0,64,0.00,,,-99.99,,2013-04-12 20:22:00,
2013-04-12 16:32:00,37.0,28.0,30.09,ENE,72,0.0,9.0,71,0.00,,,-99.99,,2013-04-12 20:32:00,
2013-04-12 16:42:00,37.0,28.0,30.09,ENE,72,0.0,9.0,71,0.00,,,-99.99,,2013-04-12 20:42:00,
2013-04-12 16:52:00,36.0,29.0,30.08,SSE,152,0.0,9.0,77,0.00,,,-99.99,,2013-04-12 20:52:00,
2013-04-12 17:02:00,35.0,33.0,30.07,SSE,162,0.0,5.0,92,0.00,,,-99.99,,2013-04-12 21:02:00,
2013-04-12 17:12:00,35.0,33.0,30.07,SSE,162,0.0,5.0,92,0.00,,,-99.99,,2013-04-12 21:12:00,
2013-04-12 17:22:00,34.0,31.0,30.10,SSE,162,1.0,2.0,89,0.00,,,-99.99,,2013-04-12 21:22:00,
2013-04-12 17:33:00,34.0,31.0,30.12,SSE,162,0.0,2.0,89,0.00,,,-99.99,,2013-04-12 21:33:00,
2013-04-12 17:43:00,34.0,31.0,30.12,SSE,162,0.0,2.0,89,0.00,,,-99.99,,2013-04-12 21:43:00,
2013-04-12 17:53:00,33.0,31.0,30.11,NNE,22,1.0,5.0,91,0.00,,,-99.99,,2013-04-12 21:53:00,
2013-04-12 18:02:00,33.0,31.0,30.10,ENE,76,0.0,4.0,92,0.00,,,-99.99,,2013-04-12 22:02:00,
2013-04-12 18:13:00,33.0,31.0,30.10,ENE,76,0.0,4.0,92,0.00,,,-99.99,,2013-04-12 22:13:00,
2013-04-12 18:22:00,33.0,31.0,30.11,NE,51,1.0,4.0,93,0.00,,,-99.99,,2013-04-12 22:22:00,
2013-04-12 18:33:00,32.0,30.0,30.10,ENE,57,1.0,6.0,94,0.00,,,-99.99,,2013-04-12 22:33:00,
2013-04-12 18:42:00,32.0,30.0,30.10,ENE,57,1.0,6.0,94,0.00,,,-99.99,,2013-04-12 22:42:00,
2013-04-12 18:52:00,32.0,30.0,30.09,ENE,57,0.0,5.0,94,0.00,,,-99.99,,2013-04-12 22:52:00,
2013-04-12 19:04:00,32.0,31.0,30.09,ESE,103,1.0,6.0,95,0.00,,,-99.99,,2013-04-12 23:04:00,
2013-04-12 19:12:00,32.0,31.0,30.09,ESE,103,1.0,6.0,95,0.00,,,-99.99,,2013-04-12 23:12:00,
2013-04-12 19:22:00,32.0,31.0,30.08,ENE,77,1.0,7.0,95,0.00,,,-99.99,,2013-04-12 23:22:00,
2013-04-12 19:32:00,32.0,31.0,30.07,ENE,72,0.0,6.0,95,0.00,,,-99.99,,2013-04-12 23:32:00,
2013-04-12 19:42:00,32.0,31.0,30.07,ENE,72,0.0,6.0,95,0.00,,,-99.99,,2013-04-12 23:42:00,
2013-04-12 19:52:00,32.0,31.0,30.07,SSE,156,2.0,9.0,95,0.00,,,-99.99,,2013-04-12 23:52:00,
2013-04-12 20:02:00,31.0,30.0,30.06,ESE,123,0.0,5.0,95,0.00,,,-99.99,,2013-04-13 00:02:00,
2013-04-12 20:12:00,31.0,30.0,30.06,ESE,123,0.0,5.0,95,0.00,,,-99.99,,2013-04-13 00:12:00,
2013-04-12 20:22:00,31.0,30.0,30.06,ENE,69,4.0,5.0,95,0.00,,,-99.99,,2013-04-13 00:22:00,
2013-04-12 20:32:00,31.0,30.0,30.06,East,81,4.0,5.0,95,0.00,,,-99.99,,2013-04-13 00:32:00,
2013-04-12 20:42:00,31.0,30.0,30.06,East,81,4.0,5.0,95,0.00,,,-99.99,,2013-04-13 00:42:00,
2013-04-12 20:52:00,31.0,30.0,30.05,ESE,118,3.0,4.0,96,0.00,,,-99.99,,2013-04-13 00:52:00,
2013-04-12 21:02:00,31.0,30.0,30.04,SE,138,1.0,5.0,96,0.00,,,-99.99,,2013-04-13 01:02:00,
2013-04-12 21:13:00,31.0,30.0,30.04,SE,138,1.0,5.0,96,0.00,,,-99.99,,2013-04-13 01:13:00,
2013-04-12 21:22:00,31.0,30.0,30.03,ENE,66,2.0,4.0,96,0.00,,,-99.99,,2013-04-13 01:22:00,
2013-04-12 21:33:00,31.0,30.0,30.03,East,91,2.0,5.0,96,0.00,,,-99.99,,2013-04-13 01:33:00,
2013-04-12 21:43:00,31.0,30.0,30.03,East,91,2.0,5.0,96,0.00,,,-99.99,,2013-04-13 01:43:00,
2013-04-12 21:52:00,32.0,31.0,30.02,ENE,60,2.0,5.0,96,0.00,,,-99.99,,2013-04-13 01:52:00,
2013-04-12 22:02:00,32.0,31.0,30.02,SE,124,0.0,4.0,96,0.00,,,-99.99,,2013-04-13 02:02:00,
2013-04-12 22:12:00,32.0,31.0,30.02,SE,124,0.0,4.0,96,0.00,,,-99.99,,2013-04-13 02:12:00,
2013-04-12 22:23:00,32.0,31.0,30.00,NE,44,0.0,5.0,96,0.00,,,-99.99,,2013-04-13 02:23:00,
2013-04-12 22:32:00,32.0,31.0,29.99,NNE,28,0.0,8.0,96,0.00,,,-99.99,,2013-04-13 02:32:00,
2013-04-12 22:42:00,32.0,31.0,29.99,NNE,28,0.0,8.0,96,0.00,,,-99.99,,2013-04-13 02:42:00,
2013-04-12 22:53:00,32.0,31.0,29.98,ESE,106,1.0,12.0,96,0.00,,,-99.99,,2013-04-13 02:53:00,
2013-04-12 23:02:00,32.0,31.0,29.96,SE,143,4.0,6.0,96,0.00,,,-99.99,,2013-04-13 03:02:00,
2013-04-12 23:12:00,32.0,31.0,29.96,SE,143,4.0,6.0,96,0.00,,,-99.99,,2013-04-13 03:12:00,
2013-04-12 23:23:00,32.0,31.0,29.96,SSE,162,1.0,7.0,96,0.00,,,-99.99,,2013-04-13 03:23:00,
2013-04-12 23:33:00,32.0,31.0,29.96,ENE,74,5.0,10.0,96,0.00,,,-99.99,,2013-04-13 03:33:00,
2013-04-12 23:43:00,32.0,31.0,29.96,ENE,74,5.0,10.0,96,0.00,,,-99.99,,2013-04-13 03:43:00,
2013-04-12 23:53:00,32.0,31.0,29.95,SE,138,4.0,6.0,96,0.00,,,-99.99,,2013-04-13 03:53:00,